This demonstration page uses our WeatherBlox Daily Observations layout. Learn more.

Left ArrowRight Arrow

40.92501, -98.34201

Hourly Observations for August 29, 2020

Temp ( °F °C ) Dew Point ( °F °C ) Humidity (%) Winds ( mph kmh ) Pressure ( in mb ) Visibility ( mi km ) Precip ( " mm )
12:53 am 00:53 Clear 68 20 60 15.6 76 76 N 9 15 29.97 1015 10 16 0.00 0.00
1:53 am 01:53 Clear 65 18.3 59 15 81 81 N 8 13 29.99 1016 10 16 0.00 0.00
2:53 am 02:53 Clear 66 18.9 60 15.6 81 81 N 10 17 29.97 1015 10 16 0.00 0.00
3:53 am 03:53 Clear 65 18.3 59 15 81 81 NNE 9 15 29.99 1016 10 16 0.00 0.00
4:53 am 04:53 Clear 64 17.8 58 14.4 81 81 N 10 17 30.00 1016 10 16 0.00 0.00
5:53 am 05:53 Clear 62 16.7 57 13.9 84 84 N 8 13 30.02 1017 10 16 0.00 0.00
6:53 am 06:53 Clear 60 15.6 56 13.3 86 86 NNE 5 7 30.04 1017 10 16 0.00 0.00
7:53 am 07:53 Sunny 60 15.6 55 12.8 84 84 Calm 30.06 1018 10 16 0.00 0.00
8:53 am 08:53 Sunny 62 16.7 56 13.3 80 80 NNE 5 7 30.06 1018 10 16 0.00 0.00
9:53 am 09:53 Sunny 66 18.9 55 12.8 68 68 NE 8 13 30.06 1018 10 16 0.00 0.00
10:53 am 10:53 Sunny 70 21.1 54 12.2 57 57 E 10 17 30.06 1018 10 16 0.00 0.00
11:53 am 11:53 Sunny 72 22.2 53 11.7 52 52 VRB 6 9 30.06 1018 10 16 0.00 0.00
12:53 pm 12:53 Sunny 74 23.3 53 11.7 48 48 E 8 13 30.04 1017 10 16 0.00 0.00
1:53 pm 13:53 Sunny 76 24.4 51 10.6 42 42 E 10 17 30.02 1017 10 16 0.00 0.00
2:53 pm 14:53 Sunny 76 24.4 49 9.4 39 39 SSE 7 11 30.00 1016 10 16 0.00 0.00
3:53 pm 15:53 Sunny 78 25.6 51 10.6 39 39 SSE 6 9 29.97 1015 10 16 0.00 0.00
4:53 pm 16:53 Sunny 77 25 48 8.9 36 36 SE 7 11 29.96 1014 10 16 0.00 0.00
5:53 pm 17:53 Sunny 77 25 48 8.9 36 36 E 6 9 29.94 1014 10 16 0.00 0.00
6:53 pm 18:53 Sunny 76 24.4 49 9.4 39 39 SE 7 11 29.93 1013 10 16 0.00 0.00
7:53 pm 19:53 Sunny 71 21.7 52 11.1 51 51 SE 6 9 29.93 1014 10 16 0.00 0.00
8:53 pm 20:53 Clear 66 18.9 54 12.2 65 65 SE 6 9 29.93 1014 10 16 0.00 0.00
9:53 pm 21:53 Clear 64 17.8 52 11.1 65 65 SSE 6 9 29.94 1014 10 16 0.00 0.00
10:53 pm 22:53 Clear 64 17.8 53 11.7 68 68 SE 3 6 29.91 1013 10 16 0.00 0.00
11:53 pm 23:53 Clear 61 16.1 53 11.7 75 75 SE 3 6 29.91 1013 10 16 0.00 0.00

Powered by AerisWeather